SCP
0 0 0 0 0 0 0 0 0 0 0 0 0 0 0 0 0 0 0 0 0 0 0 0 0 0 0 0 0 0 0 0
0 0 0 0 0 0 0 0 0 0 0 0 0 0 0 0 0 0 0 0 0 0 0 0 0 0 0 0 0 0 0 0
0 0 0 0 0 0 0 0 0 0 0 0 0 0 0 0 0 0 0 0 0 0 0 0 0 0 0 0 0 0 0 0
0 0 0 0 0 0 0 0 0 0 0 0 0 0 0 0 0 0 0 0 0 0 0 0 0 0 0 0 0 0 0 0
0 0 0 0 0 0 0 0 0 0 0 0 0 0 0 0 0 0 0 0 0 0 0 0 0 0 0 0 0 0 0 0
0 0 0 0 0 0 0 0 0 0 0 0 0 0 0 0 0 0 0 0 0 0 0 0 0 0 0 0 0 0 0 0
0 0 0 0 0 0 0 0 0 0 0 0 0 0 0 0 0 0 0 0 0 0 0 0 0 0 0 0 0 0 0 0
0 0 0 0 0 0 0 0 0 0 0 0 0 0 0 0 0 0 0 0 0 0 0 0 0 0 0 0 0 0 0 0
0 0 0 0 0 0 0 0 0 0 0 0 0 0 0 0 0 0 0 0 0 0 0 0 0 0 0 0 0 0 0 0
0 0 0 0 0 0 0 0 0 0 0 0 0 0 0 0 0 0 0 0 0 0 0 0 0 0 0 0 0 0 0 0
0 0 0 0 0 0 0 0 0 0 0 0 0 0 0 0 0 0 0 0 0 0 0 0 0 0 0 0 0 0 0 0
0 0 0 0 0 0 0 0 0 0 0 0 0 0 0 0 0 0 0 0 0 0 0 0 0 0 0 0 0 0 0 0
0 0 0 0 0 0 0 0 0 0 0 0 0 0 0 0 0 0 0 0 0 0 0 0 0 0 0 0 0 0 0 0
0 0 0 0 0 0 0 0 0 0 0 0 0 0 0 0 0 0 0 0 0 0 0 0 0 0 0 0 0 0 0 0
0 0 0 0 0 0 0 0 0 0 0 0 0 0 0 0 0 0 0 0 0 0 0 0 0 0 0 0 0 0 0 0
0 0 0 0 0 0 0 0 0 0 0 0 0 0 0 0 0 0 0 0 0 0 0 0 0 0 0 0 0 0 0 0
0 0 0 0 0 0 0 0 0 0 0 0 0 0 0 0 0 0 0 0 0 0 0 0 0 0 0 0 0 0 0 0
0 0 0 0 0 0 0 0 0 0 0 0 0 0 0 0 0 0 0 0 0 0 0 0 0 0 0 0 0 0 0 0
0 0 0 0 0 0 0 0 0 0 0 0 0 0 0 0 0 0 0 0 0 0 0 0 0 0 0 0 0 0 0 0
0 0 0 0 0 0 0 0 0 0 0 0 0 0 0 0 0 0 0 0 0 0 0 0 0 0 0 0 0 0 0 0
Wind_Speed_500mb
33 42 53 55 64 72 80 86 89 93 95 97 99 98 98 96 96 94 94 92 82 73 74 78 75 70 62 57 48 43 52 55
20 27 36 44 56 63 69 78 85 89 92 97 98 99 96 96 96 96 94 95 92 81 73 75 81 77 71 65 61 49 49 55
17 3 24 26 37 53 61 63 66 79 85 87 93 95 95 97 94 92 92 91 90 88 79 74 81 86 81 75 68 60 51 57
20 22 18 14 14 24 40 51 56 61 71 78 83 89 92 93 94 90 94 95 90 87 84 79 78 91 91 86 74 61 53 53
16 20 24 26 26 25 25 27 37 47 57 69 72 73 80 80 78 81 90 93 92 90 84 78 77 94 88 87 75 67 57 57
23 24 27 33 34 38 33 30 27 34 42 50 60 70 72 69 71 75 77 77 79 81 76 80 70 93 99 87 80 77 62 64
27 34 39 36 40 40 39 35 32 30 33 35 42 51 57 58 65 67 68 68 68 70 73 75 76 86 100 91 86 83 66 71
37 32 43 42 46 47 40 35 32 31 30 31 34 36 36 39 46 51 59 62 67 70 74 70 80 82 88 84 82 78 68 70
42 41 41 45 48 44 36 34 30 28 29 29 31 34 39 43 46 50 55 62 66 68 73 72 66 79 72 89 79 70 60 62
32 33 30 33 32 31 26 26 28 27 25 28 30 33 35 39 41 44 45 48 51 53 62 67 73 75 84 77 70 60 62 61
17 21 23 23 20 19 15 17 18 19 21 24 26 29 30 31 29 29 33 36 41 47 50 53 72 75 73 72 69 63 68 68
7 8 10 12 14 13 12 12 12 15 18 20 23 26 26 29 26 27 36 40 45 47 56 54 60 68 72 63 58 67 68 64
9 12 15 17 17 15 13 11 10 11 13 17 21 23 26 27 28 30 32 44 43 48 47 50 57 61 59 61 59 63 63 63
18 17 17 18 18 17 17 16 18 19 17 16 19 22 25 27 29 31 34 40 43 44 49 51 55 61 63 56 59 61 58 53
19 17 17 19 20 22 23 25 25 24 23 21 20 20 24 26 28 32 36 39 41 44 49 53 53 54 56 59 59 54 52 53
17 17 16 16 15 16 17 19 23 25 26 26 26 24 24 25 28 30 32 36 39 41 45 46 50 56 55 43 42 51 56 54
12 11 10 9 11 12 14 16 18 21 21 20 20 21 21 22 25 27 29 34 39 43 41 41 41 37 36 45 48 43 43 48
14 12 11 10 11 12 13 13 15 16 19 20 20 19 18 17 19 22 26 28 29 33 34 32 31 21 26 34 39 45 51 56
16 13 12 11 12 14 16 19 19 19 20 20 20 19 19 19 20 21 23 27 29 28 29 25 21 23 31 37 48 55 59 59
16 15 15 15 16 18 19 19 19 19 19 20 22 23 23 24 25 23 22 22 26 29 26 24 24 27 32 39 49 56 59 67
Wind_Direction_500mb
245 240 235 238 244 246 247 247 246 242 243 245 247 248 248 247 247 247 250 254 252 245 242 241 243 243 239 237 243 254 252 252
229 243 249 241 240 248 249 249 248 247 246 246 247 248 248 248 249 249 248 251 252 252 247 242 242 242 237 237 240 242 250 250
51 276 245 246 243 247 248 248 251 250 250 249 249 248 247 250 251 248 245 244 250 252 251 245 238 238 236 238 237 238 251 249
23 28 26 4 314 270 256 255 252 245 246 250 250 250 251 252 253 251 248 246 245 250 250 248 241 236 235 237 233 235 246 249
337 348 356 359 352 330 305 277 261 257 251 245 245 246 249 249 244 243 244 249 251 251 250 253 249 239 235 238 230 233 236 237
311 313 325 330 329 331 316 298 278 268 258 254 249 248 243 240 243 247 250 253 250 250 252 251 245 242 232 235 232 232 232 224
312 310 317 316 318 315 318 307 289 276 270 259 256 253 252 250 249 249 252 256 255 253 254 252 251 244 245 229 237 235 228 223
310 310 306 306 309 307 305 298 291 279 266 264 263 262 260 258 256 253 250 251 251 252 252 251 251 241 248 237 254 231 227 221
288 290 292 294 295 296 293 288 283 275 271 267 264 262 261 257 254 253 254 254 252 251 257 252 255 252 242 248 238 232 229 227
286 296 300 299 290 289 290 287 284 280 277 274 272 272 272 271 270 267 261 258 258 256 250 254 251 242 247 236 230 222 219 227
297 303 306 313 315 300 291 289 286 276 272 275 276 277 281 279 280 281 280 270 260 257 253 251 245 242 233 230 234 223 221 223
296 336 2 9 7 352 343 331 314 288 271 270 278 284 287 287 284 280 279 276 272 268 257 249 244 233 229 229 226 223 227 227
106 78 60 52 43 36 24 1 326 303 288 283 279 277 276 276 276 274 273 272 270 262 254 244 238 232 235 234 223 226 230 235
90 71 56 44 34 24 22 8 348 329 313 291 275 273 273 270 270 274 275 275 273 265 257 248 243 242 237 229 231 234 231 236
83 69 53 36 22 11 2 349 338 328 317 305 291 280 272 268 261 260 267 273 271 267 261 255 246 239 238 237 236 238 240 235
80 64 47 31 10 359 351 342 339 332 324 317 312 304 291 283 276 264 259 264 268 269 267 265 259 254 253 255 252 256 244 232
90 71 55 31 11 358 351 344 342 341 335 331 326 321 311 301 293 288 283 280 280 275 265 262 257 255 255 262 257 249 242 235
89 75 60 44 27 13 1 355 352 345 339 336 336 332 330 327 317 306 294 288 291 294 293 276 261 239 240 248 247 243 237 233
97 90 78 57 40 34 23 13 8 3 355 349 347 343 338 334 328 322 315 305 296 294 297 288 259 245 245 245 243 240 236 239
90 80 70 59 48 40 32 26 24 18 19 16 9 4 1 355 349 342 333 317 303 295 288 279 255 235 239 244 245 248 250 255
Wind_Speed_850mb
33 42 53 55 64 72 80 86 89 93 95 97 99 98 98 96 96 94 94 92 82 73 74 78 75 70 62 57 48 43 52 55
20 27 36 44 56 63 69 78 85 89 92 97 98 99 96 96 96 96 94 95 92 81 73 75 81 77 71 65 61 49 49 55
17 3 24 26 37 53 61 63 66 79 85 87 93 95 95 97 94 92 92 91 90 88 79 74 81 86 81 75 68 60 51 57
20 22 18 14 14 24 40 51 56 61 71 78 83 89 92 93 94 90 94 95 90 87 84 79 78 91 91 86 74 61 53 53
16 20 24 26 26 25 25 27 37 47 57 69 72 73 80 80 78 81 90 93 92 90 84 78 77 94 88 87 75 67 57 57
23 24 27 33 34 38 33 30 27 34 42 50 60 70 72 69 71 75 77 77 79 81 76 80 70 93 99 87 80 77 62 64
27 34 39 36 40 40 39 35 32 30 33 35 42 51 57 58 65 67 68 68 68 70 73 75 76 86 100 91 86 83 66 71
37 32 43 42 46 47 40 35 32 31 30 31 34 36 36 39 46 51 59 62 67 70 74 70 80 82 88 84 82 78 68 70
42 41 41 45 48 44 36 34 30 28 29 29 31 34 39 43 46 50 55 62 66 68 73 72 66 79 72 89 79 70 60 62
32 33 30 33 32 31 26 26 28 27 25 28 30 33 35 39 41 44 45 48 51 53 62 67 73 75 84 77 70 60 62 61
17 21 23 23 20 19 15 17 18 19 21 24 26 29 30 31 29 29 33 36 41 47 50 53 72 75 73 72 69 63 68 68
7 8 10 12 14 13 12 12 12 15 18 20 23 26 26 29 26 27 36 40 45 47 56 54 60 68 72 63 58 67 68 64
9 12 15 17 17 15 13 11 10 11 13 17 21 23 26 27 28 30 32 44 43 48 47 50 57 61 59 61 59 63 63 63
18 17 17 18 18 17 17 16 18 19 17 16 19 22 25 27 29 31 34 40 43 44 49 51 55 61 63 56 59 61 58 53
19 17 17 19 20 22 23 25 25 24 23 21 20 20 24 26 28 32 36 39 41 44 49 53 53 54 56 59 59 54 52 53
17 17 16 16 15 16 17 19 23 25 26 26 26 24 24 25 28 30 32 36 39 41 45 46 50 56 55 43 42 51 56 54
12 11 10 9 11 12 14 16 18 21 21 20 20 21 21 22 25 27 29 34 39 43 41 41 41 37 36 45 48 43 43 48
14 12 11 10 11 12 13 13 15 16 19 20 20 19 18 17 19 22 26 28 29 33 34 32 31 21 26 34 39 45 51 56
16 13 12 11 12 14 16 19 19 19 20 20 20 19 19 19 20 21 23 27 29 28 29 25 21 23 31 37 48 55 59 59
16 15 15 15 16 18 19 19 19 19 19 20 22 23 23 24 25 23 22 22 26 29 26 24 24 27 32 39 49 56 59 67
Wind_Direction_850mb
245 240 235 238 244 246 247 247 246 242 243 245 247 248 248 247 247 247 250 254 252 245 242 241 243 243 239 237 243 254 252 252
229 243 249 241 240 248 249 249 248 247 246 246 247 248 248 248 249 249 248 251 252 252 247 242 242 242 237 237 240 242 250 250
51 276 245 246 243 247 248 248 251 250 250 249 249 248 247 250 251 248 245 244 250 252 251 245 238 238 236 238 237 238 251 249
23 28 26 4 314 270 256 255 252 245 246 250 250 250 251 252 253 251 248 246 245 250 250 248 241 236 235 237 233 235 246 249
337 348 356 359 352 330 305 277 261 257 251 245 245 246 249 249 244 243 244 249 251 251 250 253 249 239 235 238 230 233 236 237
311 313 325 330 329 331 316 298 278 268 258 254 249 248 243 240 243 247 250 253 250 250 252 251 245 242 232 235 232 232 232 224
312 310 317 316 318 315 318 307 289 276 270 259 256 253 252 250 249 249 252 256 255 253 254 252 251 244 245 229 237 235 228 223
310 310 306 306 309 307 305 298 291 279 266 264 263 262 260 258 256 253 250 251 251 252 252 251 251 241 248 237 254 231 227 221
288 290 292 294 295 296 293 288 283 275 271 267 264 262 261 257 254 253 254 254 252 251 257 252 255 252 242 248 238 232 229 227
286 296 300 299 290 289 290 287 284 280 277 274 272 272 272 271 270 267 261 258 258 256 250 254 251 242 247 236 230 222 219 227
297 303 306 313 315 300 291 289 286 276 272 275 276 277 281 279 280 281 280 270 260 257 253 251 245 242 233 230 234 223 221 223
296 336 2 9 7 352 343 331 314 288 271 270 278 284 287 287 284 280 279 276 272 268 257 249 244 233 229 229 226 223 227 227
106 78 60 52 43 36 24 1 326 303 288 283 279 277 276 276 276 274 273 272 270 262 254 244 238 232 235 234 223 226 230 235
90 71 56 44 34 24 22 8 348 329 313 291 275 273 273 270 270 274 275 275 273 265 257 248 243 242 237 229 231 234 231 236
83 69 53 36 22 11 2 349 338 328 317 305 291 280 272 268 261 260 267 273 271 267 261 255 246 239 238 237 236 238 240 235
80 64 47 31 10 359 351 342 339 332 324 317 312 304 291 283 276 264 259 264 268 269 267 265 259 254 253 255 252 256 244 232
90 71 55 31 11 358 351 344 342 341 335 331 326 321 311 301 293 288 283 280 280 275 265 262 257 255 255 262 257 249 242 235
89 75 60 44 27 13 1 355 352 345 339 336 336 332 330 327 317 306 294 288 291 294 293 276 261 239 240 248 247 243 237 233
97 90 78 57 40 34 23 13 8 3 355 349 347 343 338 334 328 322 315 305 296 294 297 288 259 245 245 245 243 240 236 239
90 80 70 59 48 40 32 26 24 18 19 16 9 4 1 355 349 342 333 317 303 295 288 279 255 235 239 244 245 248 250 255